Rbgn^[z[y[W
メイン
   新天体発見情報
     Comet C/2020 H3 (Wierzchos)
投稿するにはまず登録を

スレッド表示 | 新しいものから 前のトピック | 次のトピック | 下へ
投稿者 スレッド
佐藤裕久
投稿日時: 2020-5-19 21:48
モデレータ
登録日: 2005-6-12
居住地: 日本
投稿: 2063
オンライン
Comet C/2020 H3 (Wierzchos)

Kacper W. Wierzchos (月惑星研究所, Arizona大学)の通報によると、4月25日、Mt Lemmon
サーベイの1.5-m 反射望遠鏡で得たCCD 画像から彗星を発見した。
4枚の30秒露出で、10"のコマとp.a. 235°に15"の尾が見える。
小惑星センターのPCCP webpageに公表後、佐藤英貴氏(東京都文京区, iTelescope 天文台, 
0.51-m f/6.8 アストログラフ, Mayhill近郊, ニューメキシコ州, 遠隔操作;4月27.45日UT、
60秒露出10枚のスタック、強い集光があり、10"のコマがあるが尾はない。6".5の円形範囲
で測定した全光度は18.8等であった)らCCD位置観測者によって彗星状と観測された。

彗星機能の追加報告は次の通り:

OC   Date        Reporter           Coma    Tail    PA          Exposures
I52  2020-04-25  D. C. Fuls          6"      18"    300
I52  2020-04-26  D. C. Fuls          4"      17"    290
I52  2020-04-27  D. C. Fuls         12"      20"    230
H06  2020-04-27  H. Sato            10"                          10x60s
246  2020-04-28  M. Tichy            8"      20"    215-235
F65  2020-04-28  L. Broering         9"      30"    210           6x50s

発見位置は次のとおり、

     2020 UT             R.A. (2000) Decl.       Mag.   Observer
     Apr. 25.44903   20 09 21.11   - 5 37 17.6   19.1   Wierzchos
          25.45434   20 09 21.21   - 5 37 08.1   18.8     "
          25.45967   20 09 21.39   - 5 36 58.5   18.9     "
          25.46498   20 09 21.56   - 5 36 48.4   19.0     "

MPCの放物線軌道要素と位置推算表は次のとおり、

Orbital elements:
    C/2020 H3 (Wierzchos)                                                       
T 2020 June 5.71616 TT                                  Rudenko                 
q   2.3002883            (2000.0)            P               Q                  
                   Peri.   30.44561     +0.24310483     +0.39215812             
                   Node   270.62275     -0.96742812     +0.16458369             
e   1.0            Incl.   62.52917     +0.07058949     +0.90505482             
From 41 observations 2020 Apr. 25-28.                                           
                                                                                
Ephemeris:
Date    TT    R. A. (2000) Decl.     Delta      r    Elong.  Phase   m1
2020 03 29    19 47 51.3 -17 41 29   2.5261  2.4276    72.9    23.1  19.4
...
2020 04 13    20 01 20.7 -11 34 17   2.2779  2.3792    83.3    24.7  19.1
...
2020 04 21    20 06 51.7 -07 50 40   2.1519  2.3578    88.9    25.2  18.9
...
2020 04 27    20 10 06.7 -04 49 13   2.0622  2.3439    93.1    25.4  18.8
2020 04 28    20 10 34.4 -04 17 49   2.0478  2.3417    93.8    25.4  18.8
2020 04 29    20 11 00.8 -03 46 04   2.0334  2.3396    94.5    25.4  18.7
...
2020 05 05    20 13 07.9 -00 28 34   1.9511  2.3282    98.7    25.4  18.6
...
2020 05 13    20 14 29.5 +04 12 55   1.8519  2.3160   104.1    25.0  18.5
...
2020 05 28    20 11 49.9 +13 45 58   1.7072  2.3024   113.1    23.9  18.3

(MPEC 2020-H221、CBET 4762)

スレッド表示 | 新しいものから 前のトピック | 次のトピック | トップ

投稿するにはまず登録を
 
© 1999 Tsutomu Seki.